カタログに戻る

COSMOS 1867 COOLANT

運用中LEO
NORAD 39656·DEBRIS·🇷🇺 Russia

打ち上げ Jul 10, 1987 から Baikonur Cosmodrome

Loading…

次のパス (今後24時間)

TLE

最新Source: Space-Track

元期: Sep 14, 2026, 05:26 UTC

1 39656U 87060T   26257.22649060  .00000118  00000-0  78179-4 0  9997
2 39656  65.0057 118.2736 0018980 280.5544  79.3404 14.33960014649441

AllMySatでCOSMOS 1867 COOLANTをリアルタイム追跡

Download on the App Store